{"data":{"norad_id":59581,"intl_designator":"2024-076T","name":"STARLINK-31690","alt_names":[],"object_type":"PAYLOAD","status":"ACTIVE","operator":null,"country":"US","launch_date":"2024-04-23","launch_site_code":"AFETR","launch_vehicle":null,"mission":null,"orbit_class":"UNKNOWN","rcs_meters":null,"size_class":null,"mass_kg":null,"dimensions":null,"purposes":["comms"],"wikipedia_slug":null,"has_3d_model":false,"image_url":null,"decayed_at":null,"tle_current":{"epoch":"2026-09-19T22:42:09.419904Z","epoch_age_seconds":216111,"freshness":"STALE","line1":"1 59581U 24076T   26262.94594236  .00000763  00000+0  37234-4 0  9995","line2":"2 59581  43.0032 351.7691 0001336 273.5074  86.5625 15.27581929136220","mean_motion":15.27581929,"eccentricity":0.0001336,"inclination_deg":43.0032,"raan_deg":351.7691,"arg_perigee_deg":273.5074,"mean_anomaly_deg":86.5625,"bstar":3.7234e-5,"rev_number":13622,"period_min":94.266629675481,"perigee_km":482.12666623504,"apogee_km":483.95997361652,"semimajor_km":6861.1803199258,"source":"CELESTRAK","updated_at":"2026-09-22T09:00:49.005075Z"}}}